Preview of NWS' New Version of Forecast
This preview is not operational and should not be used for support decisions.

Regional Weather Roundup (RWR)

Issued by Philadelphia/Mt Holly (PHI)

                            
000
ASUS41 KPHI 180112
RWRPHI

REGIONAL WEATHER ROUNDUP
NATIONAL WEATHER SERVICE MOUNT HOLLY NJ
900 PM EDT TUE SEP 17 2019

NOTE:  "FAIR" INDICATES FEW OR NO CLOUDS BELOW 12,000 FEET WITH NO
SIGNIFICANT WEATHER AND/OR OBSTRUCTIONS TO VISIBILITY.

 * = STATION DOES NOT REPORT PRECIPITATION (E.G. RAIN, SNOW, ETC.) 
        OR FOG.

NJZ015>026-180200-
SOUTHERN NEW JERSEY
  
CITY           SKY/WX    TMP DP  RH WIND       PRES   REMARKS
POMONA         FAIR      60  51  72 CALM      30.12R                  
WILDWOOD*      FAIR      61  53  75 CALM      30.13R                  
MILLVILLE      FAIR      59  52  77 CALM      30.13R                  
WRIGHTSTOWN    FAIR      60  53  78 CALM      30.13R                  
MOUNT HOLLY    FAIR      60  53  77 CALM      30.13R                  
TRENTON        FAIR      63  46  54 NE3       30.13R                  

$$
NJZ001>014-180200-
NORTHERN NEW JERSEY
  
CITY           SKY/WX    TMP DP  RH WIND       PRES   REMARKS
SUSSEX         FAIR      57  50  77 CALM      30.16R                  
ANDOVER*         N/A     56  54  93 CALM      30.16R                  
MORRISTOWN     CLEAR     55  54  94 CALM      30.15R                  
NEWARK         FAIR      67  43  41 N8        30.13R                  
TETERBORO      FAIR      68  41  37 N3        30.13R                  
CALDWELL       FAIR      65  43  44 CALM      30.15R                  
SOMERVILLE     FAIR      58  53  84 CALM      30.12R                  
ALLAIRE*       FAIR      63  52  67 E3        30.15R                  
TOMS RIVER*    FAIR      56  32  40 CALM      30.14R                  

$$
PAZ043-044-047-054-055-060>062-066>071-180200-
EASTERN PENNSYLVANIA
  
CITY           SKY/WX    TMP DP  RH WIND       PRES   REMARKS
PHILADELPHIA   FAIR      69  48  47 SE8       30.13R                  
NORTH PHILA    FAIR      68  47  46 SE3       30.14R                  
BLUE BELL*     FAIR      57  54  91 CALM      30.14R                  
DOYLESTOWN     FAIR      61  50  67 CALM      30.13R                  
QUAKERTOWN*    CLEAR     59  54  82 CALM      30.15                   
PERKASIE*      FAIR      55  55 100 CALM      30.15R                  
POTTSTOWN      FAIR      60  52  74 CALM      30.15R                  
LANCASTER      FAIR      63  51  65 CALM      30.13R                  
COATESVILLE    FAIR      63  52  67 CALM      30.15R                  
WEST CHESTER   FAIR      63  52  67 CALM      30.14R                  
READING        FAIR      64  54  69 N6        30.12R                  
ALLENTOWN      FAIR      64  47  53 CALM      30.14R                  
QN CITY/ALNTWN FAIR      63  52  67 CALM      30.15S                  
MOUNT POCONO   FAIR      58  44  60 N9        30.19R                  
HAZLETON       FAIR      52  48  87 CALM      30.21S                  
LEHIGHTON      FAIR      54  50  87 CALM      30.17R                  
WILKES BARRE   FAIR      60  47  61 E7        30.18R                  

$$
DEZALL-MDZ008-012-015-019-020-180200-
DELAWARE AND EASTERN MARYLAND
  
CITY           SKY/WX    TMP DP  RH WIND       PRES   REMARKS
WILMINGTON     FAIR      68  59  73 S6        30.13R                  
DOVER          FAIR      64  54  68 E3        30.12R                  
CHESWOLD       CLEAR     63  55  77 CALM      30.12S                  
GEORGETOWN     FAIR      63  55  75 CALM      30.13R                  
EASTON         CLEAR     66  55  68 E5        30.15R                  
STEVENSVILLE   FAIR      70  55  60 SE7       30.12R                  
PATUXENT       FAIR      71  58  63 SE9       30.10R                  
OCEAN CITY     FAIR      68  52  56 E8        30.11S                  
WALLOPS ISLAND FAIR      67  55  65 NE10      30.11R                  
CAMBRIDGE      CLEAR     66  54  63 E5        30.12R                  
SALISBURY      FAIR      60  53  77 CALM      30.11S                  

$$
PAZ001-021-NYZ056-072-MDZ011-DCZ001-180200-
OTHER NEARBY LOCATIONS
  
CITY           SKY/WX    TMP DP  RH WIND       PRES   REMARKS
HARRISBURG     FAIR      66  48  52 CALM      30.12R                  
STATE COLLEGE  PTCLDY    61  50  67 E7        30.18R                  
WILLIAMSPORT   FAIR      64  51  62 CALM      30.16R                  
BINGHAMTON     FAIR      57  46  66 N8        30.20R                  
NEW YORK CITY  FAIR      67  47  48 CALM      30.16R                  
BALTIMORE      FAIR      72  55  55 CALM      30.11R                  
WASHINGTON DC  FAIR      75  57  53 CALM      30.11R                  

$$